Torna al catalogo

STARLINK-34773

AttivoComunicazioniVLEO
NORAD 65024·PAYLOAD·🇺🇸 United States

Lanciato Jul 30, 2025 da Cape Canaveral Space Force Station

Loading…

Prossimi Passaggi (prossime 24 ore)

TLE

AggiornatoSource: CelesTrak SupGP

Epoca: Sep 14, 2026, 21:34 UTC

1 65024C 25161K   26257.89909722 -.00057020  00000+0 -16846-2 0  2579
2 65024  53.1574 131.7137 0001257  87.2469 137.5842 15.34420347    12

Traccia STARLINK-34773 in tempo reale con AllMySat

Download on the App Store